BAW92E EGKK-EHAM

Flight info

Callsign BAW92E
Flight time N/A
Altitude 27000
Route FRANE M604 GASBA M197 REDFA
Aircraft A21N/M-SDE2E3FGHIRWXY/LB1

Departure

Time 2026-05-06 19:14
Airport London Gatwick Airport (EGKK)

Arrival

Time N/A
Airport Amsterdam Airport Schiphol (EHAM)
Time Latitude Longitude Altitude Speed Heading
2026-05-06 18:41 51.16151 -0.18056 208 ft 0 kts 77°
2026-05-06 18:58 51.16150 -0.18065 208 ft 3 kts 77°
2026-05-06 18:58 51.16147 -0.18087 213 ft 3 kts 77°
2026-05-06 18:58 51.16143 -0.18116 208 ft 3 kts 77°
2026-05-06 18:59 51.16139 -0.18146 211 ft 3 kts 97°
2026-05-06 18:59 51.16148 -0.18171 215 ft 3 kts 162°
2026-05-06 18:59 51.16152 -0.18173 217 ft 0 kts 174°
2026-05-06 19:02 51.16147 -0.18172 214 ft 1 kts 174°
2026-05-06 19:03 51.16127 -0.18171 212 ft 6 kts 179°
2026-05-06 19:03 51.16066 -0.18157 211 ft 10 kts 169°
2026-05-06 19:03 51.15994 -0.18134 211 ft 11 kts 167°
2026-05-06 19:03 51.15913 -0.18106 211 ft 13 kts 167°
2026-05-06 19:04 51.15823 -0.18073 213 ft 14 kts 167°
2026-05-06 19:04 51.15721 -0.18041 213 ft 15 kts 180°
2026-05-06 19:04 51.15670 -0.18159 214 ft 15 kts 258°
2026-05-06 19:04 51.15643 -0.18322 215 ft 15 kts 233°
2026-05-06 19:05 51.15548 -0.18333 209 ft 15 kts 167°
2026-05-06 19:05 51.15443 -0.18296 218 ft 16 kts 167°
2026-05-06 19:05 51.15329 -0.18255 210 ft 17 kts 167°
2026-05-06 19:05 51.15250 -0.18227 216 ft 18 kts 169°
2026-05-06 19:06 51.15175 -0.18405 213 ft 17 kts 259°
2026-05-06 19:06 51.15147 -0.18596 208 ft 18 kts 258°
2026-05-06 19:06 51.15120 -0.18800 209 ft 20 kts 257°
2026-05-06 19:06 51.15088 -0.19022 218 ft 21 kts 257°
2026-05-06 19:07 51.15059 -0.19250 208 ft 21 kts 259°
2026-05-06 19:07 51.15036 -0.19404 212 ft 22 kts 256°
2026-05-06 19:07 51.14994 -0.19726 208 ft 23 kts 258°
2026-05-06 19:07 51.14958 -0.19986 208 ft 24 kts 257°
2026-05-06 19:08 51.14919 -0.20257 208 ft 25 kts 257°
2026-05-06 19:08 51.14880 -0.20538 215 ft 26 kts 257°
2026-05-06 19:08 51.14839 -0.20831 217 ft 27 kts 257°
2026-05-06 19:08 51.14798 -0.21123 218 ft 27 kts 257°
2026-05-06 19:09 51.14753 -0.21368 216 ft 19 kts 252°
2026-05-06 19:09 51.14714 -0.21430 216 ft 2 kts 161°
2026-05-06 19:09 51.14696 -0.21412 213 ft 7 kts 144°
2026-05-06 19:09 51.14639 -0.21342 219 ft 14 kts 157°
2026-05-06 19:10 51.14591 -0.21320 214 ft 0 kts 164°
2026-05-06 19:13 51.14555 -0.21292 216 ft 11 kts 143°
2026-05-06 19:13 51.14522 -0.21148 211 ft 18 kts 79°
2026-05-06 19:13 51.14555 -0.20930 218 ft 19 kts 78°
2026-05-06 19:14 51.14583 -0.20725 218 ft 27 kts 78°
2026-05-06 19:14 51.14672 -0.20087 214 ft 92 kts 78°
2026-05-06 19:14 51.14861 -0.18716 216 ft 154 kts 76°
2026-05-06 19:14 51.15126 -0.17018 810 ft 155 kts 74°
2026-05-06 19:15 51.15452 -0.15087 1078 ft 197 kts 72°
2026-05-06 19:15 51.15815 -0.12828 1666 ft 217 kts 74°
2026-05-06 19:15 51.16173 -0.10432 2565 ft 225 kts 75°
2026-05-06 19:15 51.16525 -0.07978 3492 ft 230 kts 76°
2026-05-06 19:16 51.16856 -0.05452 4346 ft 236 kts 80°
2026-05-06 19:16 51.16974 -0.02808 5081 ft 243 kts 86°
2026-05-06 19:16 51.16988 -0.00108 5523 ft 244 kts 89°
2026-05-06 19:16 51.16978 0.02616 6052 ft 246 kts 90°
2026-05-06 19:17 51.16966 0.05355 6594 ft 248 kts 90°
2026-05-06 19:17 51.16957 0.08069 6900 ft 251 kts 89°
2026-05-06 19:17 51.16950 0.10978 6975 ft 252 kts 89°
2026-05-06 19:17 51.17230 0.13675 6973 ft 249 kts 64°
2026-05-06 19:18 51.18286 0.15799 7133 ft 246 kts 35°
2026-05-06 19:18 51.19739 0.17233 7920 ft 245 kts 27°
2026-05-06 19:18 51.21251 0.18529 8926 ft 244 kts 26°
2026-05-06 19:18 51.22786 0.19826 9641 ft 258 kts 26°
2026-05-06 19:19 51.23598 0.20515 9845 ft 270 kts 26°
2026-05-06 19:19 51.24815 0.21545 9948 ft 282 kts 26°
2026-05-06 19:19 51.26593 0.23046 9973 ft 286 kts 26°
2026-05-06 19:19 51.28342 0.24567 9972 ft 290 kts 30°
2026-05-06 19:20 51.30103 0.26303 10097 ft 310 kts 30°
2026-05-06 19:20 51.30858 0.27036 10206 ft 320 kts 30°
2026-05-06 19:20 51.31895 0.28045 10377 ft 333 kts 30°
2026-05-06 19:20 51.33223 0.29347 10689 ft 345 kts 30°
2026-05-06 19:21 51.35322 0.31430 11427 ft 353 kts 30°
2026-05-06 19:21 51.37431 0.33548 12287 ft 358 kts 30°
2026-05-06 19:21 51.39536 0.35677 13405 ft 353 kts 31°
2026-05-06 19:21 51.41580 0.37758 14713 ft 343 kts 30°
2026-05-06 19:22 51.43595 0.39811 15944 ft 333 kts 30°
2026-05-06 19:22 51.45521 0.41775 17130 ft 323 kts 31°
2026-05-06 19:22 51.47392 0.43682 18318 ft 314 kts 30°
2026-05-06 19:22 51.49209 0.45534 19336 ft 304 kts 30°
2026-05-06 19:23 51.50975 0.47334 20203 ft 300 kts 30°
2026-05-06 19:23 51.52745 0.49135 20867 ft 303 kts 30°
2026-05-06 19:23 51.54538 0.50959 21455 ft 307 kts 30°
2026-05-06 19:23 51.56336 0.52792 22174 ft 306 kts 30°
2026-05-06 19:24 51.58161 0.54653 22594 ft 315 kts 30°
2026-05-06 19:24 51.60036 0.56568 23100 ft 320 kts 30°
2026-05-06 19:24 51.61921 0.58497 23639 ft 324 kts 30°
2026-05-06 19:24 51.63839 0.60464 24102 ft 328 kts 30°
2026-05-06 19:25 51.65773 0.62450 24543 ft 330 kts 30°
2026-05-06 19:25 51.67714 0.64444 24992 ft 333 kts 30°
2026-05-06 19:25 51.69682 0.66469 25429 ft 336 kts 30°
2026-05-06 19:25 51.71664 0.68510 25844 ft 340 kts 30°
2026-05-06 19:26 51.73688 0.70594 26044 ft 352 kts 30°
2026-05-06 19:26 51.75077 0.72024 26019 ft 364 kts 30°
2026-05-06 19:26 51.77991 0.75026 26008 ft 385 kts 30°
2026-05-06 19:26 51.79539 0.76624 26007 ft 395 kts 31°
2026-05-06 19:27 51.81852 0.79188 26012 ft 412 kts 37°
2026-05-06 19:27 51.84002 0.82359 26011 ft 427 kts 45°
2026-05-06 19:27 51.85895 0.86168 25992 ft 442 kts 55°
2026-05-06 19:27 51.87412 0.90595 25993 ft 454 kts 66°
2026-05-06 19:28 51.88424 0.95446 26010 ft 457 kts 77°
2026-05-06 19:28 51.88879 1.00517 26004 ft 457 kts 87°
2026-05-06 19:28 51.88970 1.05652 26003 ft 456 kts 85°
2026-05-06 19:28 51.89384 1.10765 26001 ft 456 kts 77°
2026-05-06 19:29 51.90099 1.15759 26003 ft 456 kts 75°
2026-05-06 19:29 51.90903 1.20737 26005 ft 457 kts 73°
2026-05-06 19:29 51.91758 1.25685 26003 ft 457 kts 73°
2026-05-06 19:29 51.92639 1.30618 26003 ft 457 kts 72°
2026-05-06 19:30 51.93534 1.35575 26005 ft 457 kts 72°
2026-05-06 19:30 51.93707 1.36529 26004 ft 457 kts 72°